This demonstration page uses our WeatherBlox Daily Observations layout. Learn more.

Left ArrowRight Arrow

39.92423, -83.80882

Hourly Observations for December 29, 2020

Temp ( °F °C ) Dew Point ( °F °C ) Humidity (%) Winds ( mph kmh ) Pressure ( in mb ) Visibility ( mi km ) Precip ( " mm )
12:28 am 00:28 Cloudy 28 -2 25 -4 86 86 WNW 7 11 30.50 1033 10 16 0.00 0.00
12:56 am 00:56 Cloudy 28 -2.2 24 -4.4 85 85 WNW 8 13 30.48 1032 10 16 0.00 0.00
1:06 am 01:06 Cloudy 28 -2 25 -4 86 86 WNW 7 11 30.50 1033 10 16 0.00 0.00
1:25 am 01:25 Cloudy 27 -3 25 -4 93 93 WNW 6 9 30.51 1033 10 16 0.00 0.00
1:56 am 01:56 Cloudy 26 -3.3 24 -4.4 92 92 W 5 7 30.49 1033 10 16 0.00 0.00
2:18 am 02:18 Partly Cloudy 25 -4 23 -5 93 93 W 3 6 30.52 1034 10 16 0.00 0.00
2:56 am 02:56 Clear 24 -4.4 23 -5 96 96 WNW 3 6 30.51 1033 10 16 0.00 0.00
3:56 am 03:56 Clear 21 -6.1 20 -6.7 96 96 WNW 5 7 30.53 1034 10 16 0.00 0.00
4:56 am 04:56 Clear 21 -6.1 21 -6.1 100 100 W 5 7 30.55 1035 10 16 0.00 0.00
5:56 am 05:56 Clear 21 -6.1 20 -6.7 96 96 WNW 5 7 30.57 1035 10 16 0.00 0.00
6:56 am 06:56 Clear 20 -6.7 20 -6.7 100 100 Calm 30.60 1036 10 16 0.00 0.00
7:56 am 07:56 Clear 20 -6.7 20 -6.7 100 100 Calm 30.61 1037 8 13 0.00 0.00
8:56 am 08:56 Sunny 22 -5.6 22 -5.6 100 100 Calm 30.61 1037 8 13 0.00 0.00
9:56 am 09:56 Sunny 26 -3.3 24 -4.4 92 92 ENE 3 6 30.62 1037 10 16 0.00 0.00
10:56 am 10:56 Sunny 31 -0.6 23 -5 72 72 ENE 7 11 30.61 1037 10 16 0.00 0.00
11:56 am 11:56 Sunny 33 0.6 18 -7.8 54 54 E 12 19 30.58 1036 10 16 0.00 0.00
12:56 pm 12:56 Sunny 34 1.1 16 -8.9 48 48 SE 12 19 30.54 1034 10 16 0.00 0.00
1:56 pm 13:56 Sunny 34 1.1 16 -8.9 48 48 ESE 10 17 30.54 1034 10 16 0.00 0.00
2:56 pm 14:56 Sunny 33 0.6 16 -8.9 49 49 SE 10 17 30.54 1034 10 16 0.00 0.00
3:56 pm 15:56 Partly Cloudy 32 0 16 -8.9 52 52 ESE 10 17 30.52 1034 10 16 0.00 0.00
4:56 pm 16:56 Mostly Cloudy 32 0 20 -6.7 61 61 E 12 19 30.48 1032 10 16 0.00 0.00
5:56 pm 17:56 Cloudy 31 -0.6 20 -6.7 64 64 E 9 15 30.46 1032 10 16 0.00 0.00
6:56 pm 18:56 Cloudy 31 -0.6 21 -6.1 67 67 ESE 10 17 30.45 1031 10 16 0.00 0.00
7:56 pm 19:56 Cloudy 31 -0.6 21 -6.1 67 67 E 13 20 30.43 1031 10 16 0.00 0.00
8:56 pm 20:56 Cloudy 32 0 22 -5.6 66 66 ESE 9 15 30.43 1031 10 16 0.00 0.00
9:56 pm 21:56 Mostly Cloudy 31 -0.6 22 -5.6 69 69 ESE 12 19 30.38 1029 10 16 0.00 0.00
10:56 pm 22:56 Partly Cloudy 32 0 21 -6.1 64 64 ESE 14 22 30.32 1027 10 16 0.00 0.00
11:56 pm 23:56 Cloudy 32 0 19 -7.2 59 59 SE 12 19 30.29 1026 10 16 0.00 0.00

Powered by AerisWeather